Weather History for Olbia, Italy

Change the Weather History Date:

Thursday, August 15, 2013

  Actual Average Record
Temperature  
Mean Temperature 77 °F -  
Max Temperature 86 °F 82 °F 100 °F (2003)
Min Temperature 68 °F 62 °F 59 °F (1997)
Cooling Degree Days 12    
Growing Degree Days 27 (Base 50)    
Moisture  
Dew Point 66 °F    
Average Humidity 70    
Maximum Humidity 89    
Minimum Humidity 55    
Precipitation  
Precipitation 0.00 in 0.05 in - ()
Sea Level Pressure  
Sea Level Pressure 30.00 in    
Wind  
Wind Speed 7 mph ()    
Max Wind Speed 14 mph    
Max Gust Speed -    
Visibility 6.2 miles    
Events      
Averages and records for this station are not official NWS values.
T = Trace of Precipitation, MM = Missing Value Source: Averaged Metar Reports

Daily Weather History Graph

Daily Weather History Graph

Search for Another Location

Airport:

Trip Planner

Search our weather history database for the weather conditions in past years. The results will help you decide how hot, cold, wet, or windy it might be!

Date:

Astronomy

Aug. 15, 2013 Rise Set
Actual Time 6:31 AM CEST 8:20 PM CEST
Civil Twilight 6:02 AM CEST 8:49 PM CEST
Nautical Twilight 5:26 AM CEST 9:25 PM CEST
Astronomical Twilight 4:47 AM CEST 10:03 PM CEST
Moon 3:20 PM CEST (8/15) 12:27 AM CEST (8/15)
Length of Visible Light 14h 47m
Length of Day
13h 48m
First Quarter, 61% of the Moon is Illuminated
Aug 15
First Quarter
Aug 21
Full
Aug 28
Last Quarter
Sep 5
New
Sep 12
First Quarter

Hourly Weather History & Observations

Time (CEST) Temp. Heat Index Dew Point Humidity Pressure Visibility Wind Dir Wind Speed Gust Speed Precip Events Conditions
12:20 AM 73.4 °F - 62.6 °F 69% 29.98 in - West 8.1 mph - N/A   Clear
12:50 AM 71.6 °F - 60.8 °F 69% 29.98 in - West 6.9 mph - N/A   Clear
1:20 AM 71.6 °F - 60.8 °F 69% 29.98 in - SW 5.8 mph - N/A   Clear
1:50 AM 71.6 °F - 59.0 °F 64% 29.98 in - SSW 5.8 mph - N/A   Clear
2:20 AM 69.8 °F - 59.0 °F 68% 29.95 in - SSW 5.8 mph - N/A   Clear
2:50 AM 69.8 °F - 59.0 °F 68% 29.95 in - SSW 5.8 mph - N/A   Clear
3:20 AM 69.8 °F - 59.0 °F 68% 29.95 in - South 4.6 mph - N/A   Clear
3:50 AM 68.0 °F - 59.0 °F 73% 29.95 in - SSW 5.8 mph - N/A   Clear
4:20 AM 69.8 °F - 59.0 °F 68% 29.95 in - SSW 5.8 mph - N/A   Clear
4:50 AM 68.0 °F - 59.0 °F 73% 29.95 in - SW 5.8 mph - N/A   Clear
5:20 AM 68.0 °F - 59.0 °F 73% 29.95 in - SSW 3.5 mph - N/A   Clear
5:50 AM 68.0 °F - 59.0 °F 73% 29.95 in - SSW 6.9 mph - N/A   Clear
6:20 AM 68.0 °F - 59.0 °F 73% 29.98 in 6.2 mi South 5.8 mph - N/A   Scattered Clouds
6:50 AM 69.8 °F - 59.0 °F 68% 29.98 in 6.2 mi SW 5.8 mph - N/A   Scattered Clouds
7:20 AM 71.6 °F - 60.8 °F 69% 30.01 in 6.2 mi SSW 4.6 mph - N/A   Mostly Cloudy
7:50 AM 73.4 °F - 62.6 °F 69% 30.01 in 6.2 mi SSW 5.8 mph - N/A   Scattered Clouds
8:20 AM 75.2 °F - 62.6 °F 65% 30.01 in 6.2 mi SSW 4.6 mph - N/A   Mostly Cloudy
8:50 AM 77.0 °F - 64.4 °F 65% 30.01 in 6.2 mi SSW 5.8 mph - N/A   Mostly Cloudy
9:20 AM 78.8 °F - 68.0 °F 69% 30.01 in 6.2 mi Variable 2.3 mph - N/A   Partly Cloudy
9:50 AM 80.6 °F 83.2 °F 68.0 °F 65% 30.01 in 6.2 mi Variable 3.5 mph - N/A   Partly Cloudy
10:20 AM 82.4 °F 86.3 °F 69.8 °F 66% 30.01 in 6.2 mi ENE 4.6 mph - N/A   Partly Cloudy
10:50 AM 84.2 °F 88.4 °F 69.8 °F 62% 30.01 in 6.2 mi NE 8.1 mph - N/A   Partly Cloudy
11:20 AM 84.2 °F 89.6 °F 71.6 °F 66% 30.01 in 6.2 mi NE 10.4 mph - N/A   Partly Cloudy
11:50 AM 86.0 °F 90.4 °F 69.8 °F 58% 30.01 in 6.2 mi ENE 10.4 mph - N/A   Partly Cloudy
12:20 PM 84.2 °F 88.4 °F 69.8 °F 62% 30.01 in 6.2 mi NE 11.5 mph - N/A   Partly Cloudy
12:50 PM 84.2 °F 88.4 °F 69.8 °F 62% 30.01 in 6.2 mi NE 12.7 mph - N/A   Partly Cloudy
1:20 PM 84.2 °F 88.4 °F 69.8 °F 62% 30.01 in 6.2 mi NE 12.7 mph - N/A   Partly Cloudy
1:50 PM 84.2 °F 88.4 °F 69.8 °F 62% 30.01 in 6.2 mi NE 13.8 mph - N/A   Partly Cloudy
2:20 PM 84.2 °F 88.4 °F 69.8 °F 62% 30.01 in 6.2 mi NNE 13.8 mph - N/A   Partly Cloudy
2:50 PM 82.4 °F 86.3 °F 69.8 °F 66% 30.01 in 6.2 mi NNE 13.8 mph - N/A   Partly Cloudy
3:20 PM 84.2 °F 88.4 °F 69.8 °F 62% 30.01 in 6.2 mi NE 12.7 mph - N/A   Partly Cloudy
3:50 PM 84.2 °F 87.3 °F 68.0 °F 58% 30.01 in 6.2 mi NE 13.8 mph - N/A   Partly Cloudy
4:20 PM 84.2 °F 86.6 °F 66.2 °F 55% 30.01 in 6.2 mi ENE 11.5 mph - N/A   Partly Cloudy
4:50 PM 82.4 °F 87.2 °F 71.6 °F 70% 30.01 in 6.2 mi NNE 13.8 mph - N/A   Partly Cloudy
5:20 PM 82.4 °F 86.3 °F 69.8 °F 66% 30.01 in 6.2 mi NE 12.7 mph - N/A   Partly Cloudy
5:50 PM 80.6 °F 84.6 °F 71.6 °F 74% 30.01 in 6.2 mi NE 12.7 mph - N/A   Partly Cloudy
6:20 PM 80.6 °F 84.6 °F 71.6 °F 74% 30.01 in 6.2 mi NE 10.4 mph - N/A   Partly Cloudy
6:50 PM 80.6 °F 84.6 °F 71.6 °F 74% 30.01 in 6.2 mi NE 10.4 mph - N/A   Scattered Clouds
7:20 PM 78.8 °F - 71.6 °F 78% 30.01 in 6.2 mi NE 10.4 mph - N/A   Partly Cloudy
7:50 PM 78.8 °F - 71.6 °F 78% 30.01 in 6.2 mi NE 6.9 mph - N/A   Partly Cloudy
8:20 PM 77.0 °F - 71.6 °F 83% 30.04 in 6.2 mi NE 4.6 mph - N/A   Partly Cloudy
8:50 PM 77.0 °F - 69.8 °F 78% 30.04 in 6.2 mi NE 3.5 mph - N/A   Partly Cloudy
9:20 PM 75.2 °F - 71.6 °F 89% 30.04 in 6.2 mi East 2.3 mph - N/A   Partly Cloudy
9:50 PM 75.2 °F - 71.6 °F 89% 30.04 in 6.2 mi NNE 2.3 mph - N/A   Partly Cloudy
10:20 PM 75.2 °F - 69.8 °F 83% 30.04 in 6.2 mi Variable 1.2 mph - N/A   Scattered Clouds
10:50 PM 75.2 °F - 69.8 °F 83% 30.06 in 6.2 mi SSW 2.3 mph - N/A   Scattered Clouds
11:20 PM 75.2 °F - 69.8 °F 83% 30.06 in 6.2 mi SW 2.3 mph - N/A   Scattered Clouds
11:50 PM 73.4 °F - 68.0 °F 83% 30.06 in 6.2 mi South 3.5 mph - N/A   Scattered Clouds